This is the latest recevied weather packets stored in our database for station/object KB3HLL. If no packets are shown the sender has not sent any weather packets the latest 10 day(s).
| Time | Temp. | Humidity | Pressure | Rain* | Wind** | Luminosity | Snow |
|---|---|---|---|---|---|---|---|
| 1777983379 | 14.44° C | 84% | 1011.8 hPa | 0.76 mm | - | 16 W/m² | - |
| 1777983080 | 14.44° C | 86% | 1011.8 hPa | 0.51 mm | - | 14 W/m² | - |
| 1777982780 | 14.44° C | 85% | 1012 hPa | 0.51 mm | - | 16 W/m² | - |
| 1777982486 | 15° C | 83% | 1012.1 hPa | 0 mm | - | 33 W/m² | - |
| 1777982014 | 16.11° C | 81% | 1011.8 hPa | 0 mm | - | 20 W/m² | - |
| 1777981578 | 16.11° C | 70% | 1011.6 hPa | 0 mm | - | 43 W/m² | - |
| 1777981278 | 16.11° C | 71% | 1011.6 hPa | 0 mm | - | 76 W/m² | - |
| 1777980980 | 16.11° C | 72% | 1011.4 hPa | 0 mm | - | 95 W/m² | - |
| 1777980677 | 16.11° C | 70% | 1011.2 hPa | 0 mm | - | 95 W/m² | - |
| 1777980380 | 16.11° C | 70% | 1011.1 hPa | 0 mm | - | 70 W/m² | - |
| 1777980081 | 16.11° C | 71% | 1011.1 hPa | 0 mm | - | 59 W/m² | - |
| 1777979778 | 15.56° C | 72% | 1011.1 hPa | 0 mm | - | 63 W/m² | - |
| 1777979479 | 15.56° C | 72% | 1011 hPa | 0 mm | - | 52 W/m² | - |
| 1777979180 | 15.56° C | 72% | 1011 hPa | 0 mm | - | 53 W/m² | - |
| 1777978881 | 15.56° C | 74% | 1011.1 hPa | 0 mm | - | 51 W/m² | - |
| 1777978580 | 15.56° C | 73% | 1011 hPa | 0 mm | - | 43 W/m² | - |
| 1777978277 | 15.56° C | 73% | 1011 hPa | 0 mm | - | 40 W/m² | - |
| 1777977977 | 15.56° C | 73% | 1011.2 hPa | 0 mm | - | 44 W/m² | - |
| 1777977677 | 15° C | 75% | 1011.1 hPa | 0 mm | - | 34 W/m² | - |
| 1777977378 | 15° C | 76% | 1011.1 hPa | 0 mm | - | 27 W/m² | - |
| 1777977079 | 15° C | 76% | 1011.1 hPa | 0 mm | - | 26 W/m² | - |
| 1777976777 | 15° C | 77% | 1011 hPa | 0 mm | - | 21 W/m² | - |
| 1777976479 | 15° C | 76% | 1010.9 hPa | 0 mm | - | 15 W/m² | - |
| 1777976179 | 15.56° C | 76% | 1011 hPa | 0.51 mm | - | 13 W/m² | - |
| 1777975878 | 15.56° C | 76% | 1011 hPa | 0.51 mm | - | 7 W/m² | - |
* Rain latest hour (hover to see other rain measurements)
** Current wind speed in m/s (hover to see current wind gust speed)